Temperature
22 21 21 21 20 20 19 19 19 18 18 18 18 18 18 18 18 18 18 18 18 18 18 18 17 17 17 17 17 17 17 17 17 17 17 17 17 17 17 17 17 17 17
21 21 21 20 20 20 19 19 19 18 18 18 18 18 18 18 18 18 18 18 18 18 18 18 17 17 17 17 17 17 17 17 17 17 17 17 17 17 17 17 17 17 17
21 21 21 20 20 20 19 19 19 18 18 18 18 18 18 17 17 18 18 18 18 18 18 17 17 17 17 17 17 17 17 17 17 17 17 17 17 17 17 17 17 17 17
21 21 21 20 20 20 19 19 19 18 18 18 18 18 18 18 18 18 18 18 17 17 17 17 17 17 17 17 17 17 17 17 17 17 17 17 17 17 17 17 17 17 17
21 21 21 20 20 19 19 19 18 18 18 18 18 18 18 18 18 18 17 17 17 17 17 17 17 17 17 16 16 16 16 16 17 17 17 17 17 17 17 17 17 17 17
21 21 20 20 20 19 19 18 18 18 18 18 18 18 18 18 17 17 17 17 17 17 17 17 17 17 16 16 16 16 16 16 16 17 17 17 17 17 17 17 17 17 17
21 21 20 20 19 19 18 18 18 18 17 17 17 17 17 17 17 17 17 17 17 17 17 17 17 16 16 16 16 16 16 16 16 16 16 17 17 17 17 17 17 17 17
21 21 20 20 19 19 18 18 18 17 17 17 17 17 17 17 17 17 17 18 17 17 17 17 17 16 16 16 16 16 16 16 16 16 16 17 17 17 17 17 17 17 17
21 20 20 19 19 19 18 18 17 17 17 17 17 17 17 17 17 17 17 17 17 17 17 17 16 16 16 16 16 16 16 16 16 16 16 16 17 17 17 17 17 17 17
20 20 20 19 19 18 18 18 18 17 17 17 17 17 17 17 17 17 17 17 17 17 17 16 16 16 16 16 16 16 16 16 16 16 16 16 16 16 16 16 16 16 17
20 19 19 19 19 18 18 18 17 17 17 17 17 17 17 16 17 17 17 17 17 17 16 16 16 16 16 16 15 15 15 15 15 15 16 16 16 16 16 16 16 16 16
20 20 19 19 18 18 17 17 17 17 17 17 17 17 16 16 16 16 16 16 16 16 16 16 16 16 16 15 15 15 15 15 15 15 15 15 15 15 16 16 16 16 16
20 19 19 18 18 18 17 17 17 17 17 17 16 16 16 16 16 16 16 16 16 16 16 16 16 15 15 15 15 15 15 15 15 15 15 15 15 15 15 15 15 15 15
19 19 19 18 18 18 17 17 17 17 17 16 16 16 16 16 16 16 16 16 16 16 16 16 15 15 15 15 15 15 15 15 15 15 15 15 15 15 15 15 15 15 15
19 19 19 18 18 17 17 17 17 17 17 16 16 16 16 16 16 16 16 16 16 15 15 15 15 15 15 15 15 15 15 15 15 15 15 14 14 14 14 14 14 14 14
19 19 19 18 18 18 17 17 17 17 17 17 17 16 16 16 16 16 16 15 15 15 15 15 15 15 15 15 15 15 15 14 14 14 14 14 14 14 14 13 13 13 13
18 18 19 19 18 18 18 18 17 17 17 17 16 16 16 16 16 15 15 15 15 15 15 15 15 14 14 14 14 14 14 14 14 13 13 13 13 13 12 12 12 12 12
18 19 19 19 18 18 18 18 17 17 17 16 16 16 16 16 15 15 15 15 15 15 14 14 14 14 14 14 14 14 13 13 13 12 12 12 12 12 11 11 11 11 11
18 18 18 18 18 18 17 17 17 17 17 16 16 16 16 16 15 15 15 14 14 14 14 13 13 13 13 13 13 13 12 12 12 11 11 11 11 11 10 10 10 10 10
18 18 18 18 18 17 17 17 17 16 16 16 16 16 15 15 15 15 14 14 13 13 13 12 12 12 12 12 11 11 11 11 11 10 10 10 10 10 9 9 9 9 9
17 18 17 17 17 17 17 16 16 16 16 16 15 15 15 14 14 14 13 13 13 12 12 11 11 11 11 10 10 10 10 10 10 10 9 9 9 8 8 8 8 7 7
16 16 16 16 16 16 16 16 15 15 15 15 15 14 14 13 13 13 12 12 12 11 11 11 10 10 10 10 9 9 9 9 9 9 8 8 7 7 7 7 6 6 6
15 15 15 15 15 15 15 15 14 14 14 14 13 13 13 12 12 12 12 11 11 11 10 10 10 9 9 9 9 9 8 8 8 7 7 7 6 6 6 6 5 5 5
14 14 14 14 14 13 14 14 13 13 13 13 12 12 12 11 11 11 11 10 10 10 9 9 9 8 8 8 8 8 8 7 7 7 6 6 6 6 5 5 5 5 4
13 13 13 13 13 13 13 13 12 13 12 12 11 11 11 11 10 10 10 10 9 9 9 9 8 8 8 7 7 7 7 6 6 6 6 5 5 5 5 4 4 4 3
12 12 12 12 12 12 12 12 12 12 12 11 10 10 10 10 10 9 9 8 8 8 8 8 7 7 7 7 6 6 6 6 5 5 5 5 4 4 3 3 3 3 2
Wind_Speed
8 9 10 11 12 12 12 12 13 11 10 8 8 7 6 4 4 5 8 10 10 10 8 4 3 3 4 4 5 3 3 2 2 3 3 3 1 2 3 4 4 6 10
8 9 9 10 11 12 12 12 13 14 11 9 7 6 6 4 5 4 6 9 10 9 7 5 5 4 4 4 4 4 3 1 2 3 3 2 3 3 2 3 5 5 7
14 12 10 10 11 12 13 13 13 12 11 10 8 7 5 4 3 4 4 5 8 8 7 7 5 5 4 4 4 4 5 2 1 2 4 3 3 2 3 2 4 5 4
11 11 11 10 11 11 11 11 11 12 11 11 11 11 8 6 6 6 5 5 7 8 8 8 6 5 4 4 4 4 4 4 2 0 1 2 4 3 1 3 2 3 5
11 12 11 11 9 9 10 10 10 10 10 11 12 11 8 6 5 5 7 6 4 6 7 7 6 5 4 4 4 4 4 3 3 2 1 1 1 2 3 1 2 2 3
10 9 8 8 7 7 8 9 10 9 10 11 11 11 10 9 9 8 7 6 4 4 5 7 6 5 4 5 5 5 5 4 3 3 2 2 2 2 3 3 3 3 3
9 10 9 8 8 8 9 9 9 9 9 10 10 10 11 11 11 10 9 7 5 4 5 5 5 5 4 5 4 4 4 4 3 3 2 2 2 2 3 3 2 2 2
9 10 10 9 9 9 9 9 9 8 9 10 9 8 9 8 7 8 8 8 6 5 6 6 6 6 5 5 4 3 3 3 3 3 2 1 1 1 2 3 3 1 2
8 8 8 7 7 8 8 9 9 8 8 8 8 8 8 8 8 8 7 6 5 6 7 7 7 6 5 5 5 3 3 3 3 2 2 1 1 1 1 2 3 4 2
6 7 7 7 6 6 7 8 9 9 8 8 8 8 7 8 8 7 8 7 7 7 8 7 7 6 5 5 5 3 3 4 2 2 2 1 1 2 2 2 2 3 4
7 7 6 6 6 6 7 7 8 9 8 8 7 7 7 7 7 7 7 8 7 7 8 7 7 6 6 5 4 3 3 4 2 1 1 1 1 1 2 2 2 2 2
8 7 7 6 6 6 6 7 8 9 8 8 7 7 7 7 7 7 7 7 7 7 7 7 6 6 6 6 6 5 4 4 3 2 1 1 1 2 1 2 2 1 1
9 8 7 7 7 7 7 7 7 8 7 7 7 7 7 7 7 7 7 7 7 7 7 7 6 5 5 5 4 4 3 3 3 2 2 1 2 2 1 2 2 1 2
10 10 8 7 7 7 7 8 7 8 9 8 8 7 7 7 7 7 7 7 6 6 6 6 5 4 4 4 4 4 4 4 3 3 3 3 3 3 2 3 2 2 3
11 11 10 9 8 8 7 7 8 8 9 9 9 8 7 6 6 6 6 6 6 6 6 6 5 4 3 2 4 5 6 6 6 6 5 5 6 7 5 4 3 3 3
11 11 11 11 11 11 10 9 8 8 8 9 9 8 8 8 7 7 7 8 8 7 7 7 6 5 4 5 7 8 7 7 7 7 6 6 7 9 10 10 9 7 4
10 11 11 11 11 11 11 11 10 8 8 8 8 8 8 8 7 8 8 9 8 8 8 8 8 8 8 10 11 12 9 8 7 6 6 6 7 8 6 9 11 10 10
7 8 8 9 8 8 9 9 9 9 10 9 8 8 8 9 9 9 9 9 9 9 9 9 9 9 10 12 13 14 11 10 9 8 7 7 7 7 6 7 7 7 7
3 3 4 5 6 8 9 10 9 9 9 9 9 9 10 10 10 11 10 10 10 11 10 9 9 10 10 12 13 12 10 10 9 8 8 8 7 9 9 7 7 6 6
5 4 4 5 5 6 8 10 9 10 9 9 9 9 9 11 11 11 11 10 11 12 12 11 9 10 10 12 13 12 8 8 7 6 7 9 8 9 9 7 6 6 5
6 6 6 6 5 6 9 10 10 9 9 10 11 10 10 11 12 11 11 12 13 13 12 12 10 10 11 11 12 11 7 7 6 5 4 4 8 9 10 8 5 5 4
7 8 8 7 6 6 10 11 10 9 10 12 12 12 11 11 12 13 12 12 13 14 12 11 10 8 8 10 11 13 11 8 6 5 3 3 8 10 10 8 8 10 8
7 7 9 9 8 7 9 13 11 12 13 14 14 13 13 12 12 13 12 11 10 10 10 9 9 7 6 7 11 12 12 11 6 4 5 7 9 9 8 10 11 9 6
8 8 10 11 10 9 10 11 12 12 15 16 14 13 14 13 12 10 9 9 9 10 9 8 8 6 5 5 5 5 6 8 7 5 7 10 11 9 8 8 7 6 5
8 9 10 12 11 11 12 11 11 14 15 15 14 13 12 13 12 11 9 8 6 8 10 7 7 6 5 3 5 5 4 4 4 5 5 6 5 6 6 5 5 5 5
10 11 12 13 12 12 12 11 11 13 15 14 13 11 11 11 11 12 11 15 12 13 13 11 8 6 6 7 8 9 9 9 9 8 5 5 5 5 4 4 4 4 4
Wind_Direction
168 161 162 160 160 165 164 164 161 164 162 158 155 154 159 159 159 161 160 155 155 152 145 140 138 136 145 153 147 128 117 97 112 85 42 359 321 202 201 197 193 205 210
158 162 163 164 164 167 166 168 168 169 170 166 162 159 156 163 166 165 157 160 159 156 155 145 148 148 142 139 136 125 121 90 115 123 99 22 342 326 224 196 200 205 204
170 171 172 171 168 169 173 177 175 171 169 159 147 139 125 120 138 156 165 172 163 158 153 151 144 147 149 153 153 140 135 135 76 134 142 150 219 285 318 240 212 201 200
172 172 173 174 176 177 173 174 174 171 167 160 159 159 161 169 180 173 172 172 165 157 153 150 146 149 149 154 159 145 140 136 129 74 148 172 161 157 280 316 271 222 216
180 178 178 176 174 173 174 173 170 170 169 167 166 166 167 170 160 156 161 166 163 158 154 149 142 145 147 152 145 132 128 133 143 146 139 114 114 130 145 240 294 289 248
178 175 168 159 162 165 167 167 169 173 172 170 169 169 169 165 158 163 167 168 163 160 161 149 142 143 144 150 145 137 133 131 130 132 132 146 160 189 163 189 233 249 267
167 164 163 164 165 164 165 165 169 173 173 172 174 174 173 169 171 171 171 167 164 167 174 156 151 147 151 153 143 132 136 142 138 146 148 150 182 185 161 153 192 246 291
171 169 170 166 166 168 169 166 170 171 171 172 173 171 169 168 173 173 169 170 174 175 170 160 158 156 155 153 140 133 149 151 151 146 140 141 144 136 153 157 147 96 333
170 165 161 161 166 168 173 172 169 167 169 167 161 161 164 166 170 168 166 165 166 171 165 159 155 155 155 152 144 145 158 152 158 152 139 150 137 96 114 134 146 147 168
151 152 156 157 159 159 162 167 169 169 167 162 163 163 163 166 165 162 163 162 167 161 157 159 158 157 158 154 148 147 156 151 164 161 139 131 120 75 71 87 106 139 159
148 152 157 151 146 144 150 154 158 156 157 159 157 155 160 160 157 161 164 161 159 156 160 163 163 164 164 158 155 166 158 165 175 171 156 194 153 97 69 76 84 95 137
152 147 150 145 143 147 151 156 158 156 158 157 152 152 152 151 151 154 156 151 149 157 162 159 163 170 171 169 171 186 180 178 186 197 170 209 136 93 70 78 74 72 121
150 146 148 152 156 156 156 156 158 157 154 150 149 149 148 149 150 153 152 152 151 151 151 149 156 162 164 169 175 180 182 176 175 175 160 163 123 104 81 77 69 49 53
158 157 159 158 158 160 161 160 160 159 158 153 151 153 154 155 154 152 149 149 145 141 136 130 129 131 132 146 159 148 139 128 111 98 96 89 104 111 100 79 59 62 56
165 166 167 166 163 161 161 161 161 161 161 157 159 160 156 151 147 147 143 137 130 126 117 110 102 96 98 119 136 132 125 116 101 85 76 74 82 81 80 82 70 70 65
172 172 169 170 172 172 170 166 163 162 157 160 163 162 155 152 153 146 132 119 111 106 103 101 97 82 73 87 105 112 108 106 103 94 78 68 63 70 68 69 66 69 74
172 174 175 175 178 176 172 170 169 162 158 161 159 157 155 153 148 140 126 118 114 107 99 93 88 79 65 78 92 99 102 98 94 92 85 76 60 54 59 59 56 51 51
166 172 172 172 175 171 166 160 159 159 158 158 158 152 145 138 129 123 120 116 111 107 101 94 88 82 70 76 88 95 92 88 82 81 83 80 59 53 62 67 58 46 37
125 144 162 166 165 165 161 152 152 153 152 154 151 149 145 138 130 126 123 117 112 104 97 92 87 84 73 72 82 93 94 90 80 76 76 78 70 56 63 68 60 43 23
87 107 132 133 146 159 150 143 145 142 143 143 138 134 133 130 127 125 119 113 110 107 101 89 82 83 77 74 81 87 97 95 87 74 66 66 67 58 60 67 63 48 13
82 84 101 121 132 138 131 130 131 134 132 123 117 114 115 116 117 114 113 113 110 105 100 91 80 74 72 70 74 81 93 103 97 83 61 44 53 57 59 65 66 52 39
75 82 91 90 90 110 125 125 126 124 117 111 108 105 105 109 110 109 108 110 112 109 105 97 84 69 64 67 68 70 76 87 94 84 57 43 56 60 57 58 51 48 49
84 88 97 91 80 87 117 120 119 117 112 106 102 100 96 97 104 109 111 109 109 111 109 102 95 79 62 58 63 68 71 72 79 76 71 68 65 60 55 53 52 50 49
90 94 96 94 86 82 94 106 112 113 112 108 104 100 98 94 88 90 97 105 109 113 112 109 105 94 71 55 50 54 58 58 60 59 62 63 62 61 54 47 45 46 49
88 92 96 97 94 93 93 96 106 110 107 104 101 99 98 98 90 80 72 87 88 117 122 121 121 115 95 66 72 78 63 58 69 74 63 56 54 53 45 40 35 33 33
96 94 92 93 92 92 92 92 101 110 111 109 108 106 104 102 102 100 83 60 75 86 97 107 110 92 101 98 75 68 72 80 87 82 73 68 67 66 56 47 32 26 25
Height
1482 1485 1487 1489 1492 1495 1497 1500 1503 1507 1511 1515 1519 1523 1526 1530 1534 1537 1539 1542 1543 1545 1547 1549 1551 1553 1554 1556 1557 1559 1560 1562 1563 1565 1566 1566 1567 1567 1568 1569 1569 1570 1571
1481 1483 1485 1487 1489 1492 1495 1498 1501 1505 1509 1513 1517 1521 1524 1528 1532 1535 1538 1540 1542 1544 1546 1548 1549 1551 1553 1554 1556 1557 1559 1561 1562 1564 1565 1565 1567 1566 1567 1567 1568 1569 1570
1478 1481 1483 1485 1488 1490 1492 1495 1499 1502 1507 1511 1516 1519 1523 1527 1530 1533 1535 1538 1540 1542 1544 1546 1548 1550 1551 1553 1555 1556 1557 1559 1561 1562 1564 1564 1564 1565 1566 1566 1567 1568 1568
1477 1479 1481 1484 1486 1488 1491 1493 1497 1500 1504 1508 1512 1516 1519 1522 1526 1529 1533 1536 1538 1540 1542 1545 1546 1548 1550 1552 1553 1554 1556 1558 1559 1561 1562 1563 1563 1564 1564 1565 1565 1566 1567
1476 1478 1480 1482 1484 1487 1489 1492 1495 1498 1502 1505 1509 1513 1517 1520 1524 1527 1531 1534 1536 1538 1541 1543 1545 1547 1548 1550 1551 1553 1555 1556 1558 1559 1561 1562 1562 1563 1563 1563 1564 1565 1565
1475 1477 1480 1482 1483 1486 1488 1490 1493 1496 1499 1502 1506 1510 1514 1518 1521 1525 1528 1531 1534 1536 1539 1541 1543 1545 1547 1548 1550 1552 1553 1555 1557 1558 1559 1560 1561 1561 1562 1562 1563 1563 1564
1474 1475 1478 1481 1482 1485 1486 1489 1491 1494 1497 1500 1503 1507 1511 1515 1519 1522 1525 1529 1531 1534 1536 1539 1541 1543 1545 1547 1548 1550 1552 1553 1555 1557 1558 1559 1560 1560 1561 1561 1561 1562 1563
1474 1475 1477 1479 1481 1483 1485 1487 1489 1492 1494 1497 1501 1505 1509 1513 1516 1520 1523 1526 1529 1532 1535 1537 1539 1541 1543 1545 1547 1549 1550 1552 1553 1555 1557 1558 1559 1559 1560 1560 1560 1561 1561
1473 1475 1476 1479 1480 1482 1484 1485 1488 1490 1493 1496 1499 1503 1506 1510 1514 1517 1521 1524 1527 1530 1533 1536 1538 1540 1542 1544 1545 1547 1549 1550 1552 1553 1555 1556 1557 1558 1558 1559 1559 1560 1559
1473 1475 1477 1478 1480 1481 1483 1485 1487 1489 1492 1495 1498 1501 1504 1507 1511 1515 1518 1522 1525 1528 1531 1534 1536 1538 1540 1542 1544 1546 1547 1549 1550 1552 1553 1554 1555 1556 1556 1557 1557 1558 1558
1473 1475 1477 1478 1479 1481 1482 1484 1486 1488 1491 1493 1496 1499 1502 1506 1509 1513 1516 1520 1524 1527 1530 1532 1535 1537 1539 1541 1542 1544 1546 1547 1549 1550 1551 1552 1553 1554 1554 1555 1555 1555 1556
1472 1474 1477 1478 1479 1481 1482 1484 1486 1488 1490 1493 1496 1499 1502 1505 1508 1511 1515 1518 1522 1525 1528 1531 1533 1535 1537 1539 1541 1542 1544 1546 1547 1548 1549 1550 1551 1552 1552 1553 1553 1553 1553
1470 1473 1476 1478 1480 1481 1483 1484 1486 1488 1491 1493 1496 1499 1502 1504 1507 1511 1514 1517 1521 1524 1527 1529 1531 1533 1535 1537 1539 1540 1542 1543 1545 1546 1547 1548 1549 1549 1550 1550 1550 1550 1550
1469 1472 1475 1478 1480 1482 1483 1485 1487 1489 1491 1493 1496 1499 1501 1504 1507 1511 1513 1517 1520 1523 1525 1527 1530 1532 1534 1535 1537 1538 1540 1541 1543 1544 1545 1546 1546 1547 1547 1547 1547 1547 1547
1469 1471 1474 1476 1478 1480 1483 1485 1487 1489 1491 1493 1496 1499 1502 1505 1508 1510 1513 1516 1519 1522 1524 1526 1528 1530 1531 1533 1535 1536 1538 1539 1541 1542 1543 1543 1544 1544 1544 1544 1544 1544 1544
1467 1469 1471 1474 1476 1478 1481 1483 1486 1488 1491 1493 1496 1498 1501 1504 1507 1510 1512 1515 1518 1520 1522 1524 1526 1528 1530 1531 1533 1535 1536 1537 1538 1539 1540 1541 1541 1541 1541 1541 1541 1541 1541
1466 1467 1469 1471 1473 1476 1478 1481 1484 1488 1490 1493 1495 1498 1501 1504 1507 1509 1512 1514 1516 1519 1521 1523 1525 1527 1528 1530 1531 1533 1534 1535 1536 1537 1538 1538 1539 1539 1539 1538 1538 1538 1537
1465 1466 1467 1469 1472 1474 1477 1480 1483 1486 1489 1492 1494 1497 1500 1502 1505 1508 1510 1513 1516 1518 1520 1522 1524 1526 1527 1529 1530 1531 1532 1533 1534 1536 1536 1537 1537 1537 1537 1536 1536 1535 1535
1464 1465 1467 1469 1471 1474 1476 1478 1482 1485 1488 1490 1493 1496 1498 1501 1503 1506 1509 1512 1514 1517 1519 1521 1523 1525 1526 1528 1529 1530 1531 1532 1533 1534 1535 1535 1535 1535 1535 1535 1534 1533 1533
1463 1465 1466 1468 1470 1473 1474 1477 1480 1483 1485 1488 1491 1494 1497 1499 1502 1505 1508 1511 1513 1515 1517 1520 1522 1524 1525 1527 1529 1530 1530 1531 1532 1533 1534 1534 1534 1534 1533 1533 1532 1531 1531
1463 1464 1465 1466 1469 1471 1473 1476 1479 1481 1484 1487 1490 1493 1496 1499 1502 1504 1507 1510 1512 1514 1517 1519 1521 1523 1525 1527 1529 1530 1531 1531 1532 1533 1533 1533 1533 1532 1532 1531 1531 1530 1530
1463 1464 1465 1465 1467 1469 1471 1474 1477 1480 1483 1486 1489 1492 1495 1498 1501 1504 1507 1510 1512 1514 1517 1520 1522 1525 1526 1528 1529 1530 1531 1532 1532 1532 1533 1532 1532 1532 1531 1531 1530 1530 1529
1464 1465 1465 1466 1467 1469 1471 1473 1477 1480 1482 1485 1489 1492 1495 1499 1502 1505 1508 1511 1513 1516 1518 1521 1523 1525 1528 1529 1530 1531 1532 1532 1532 1532 1533 1533 1532 1532 1531 1530 1530 1529 1527
1465 1466 1467 1467 1469 1471 1473 1475 1478 1481 1483 1486 1489 1493 1496 1500 1503 1506 1509 1512 1515 1518 1520 1523 1525 1527 1529 1530 1531 1532 1532 1532 1533 1533 1533 1533 1532 1532 1531 1530 1529 1528 1526
1467 1468 1468 1469 1471 1473 1476 1478 1480 1483 1485 1488 1492 1496 1499 1502 1505 1508 1512 1515 1518 1520 1522 1525 1527 1528 1530 1531 1532 1532 1533 1533 1533 1533 1533 1533 1533 1532 1531 1530 1528 1527 1525
1469 1470 1471 1472 1474 1477 1479 1481 1484 1486 1489 1492 1495 1498 1502 1505 1508 1511 1514 1518 1521 1524 1526 1527 1529 1530 1532 1532 1533 1533 1534 1534 1534 1534 1534 1533 1532 1532 1531 1530 1528 1527 1525